New Bern, NC

8:13 AM EDT on August 17, 2017 (GMT -0400)
Craven County Regional

Weather History for KEWN - January, 2014

Change the Weather History Date:

Wednesday, January 22, 2014

  Actual Average Record
Temperature  
Mean Temperature 25 °F 44 °F  
Max Temperature 31 °F 55 °F 74 °F (1962)
Min Temperature 19 °F 34 °F 13 °F (1970)
Degree Days  
Heating Degree Days 40 21  
Month to date heating degree days 448 462  
Since 1 July heating degree days 1301 1456  
Cooling Degree Days 0 0  
Month to date cooling degree days 1 0  
Year to date cooling degree days 1 0  
Moisture  
Dew Point 18 °F    
Average Humidity 69    
Maximum Humidity 85    
Minimum Humidity 53    
Precipitation  
Precipitation T in 0.12 in 2.71 in (1966)
Month to date precipitation 3.28 2.87  
Year to date precipitation 3.28 2.87  
Snow  
Snow T in - - ()
Month to date snowfall T  
Since 1 July snowfall T  
Snow Depth 0.00 in    
Sea Level Pressure  
Sea Level Pressure 29.97 in    
Wind  
Wind Speed 9 mph (NNW)    
Max Wind Speed 22 mph    
Max Gust Speed 32 mph    
Visibility 10 miles    
Events Snow    
T = Trace of Precipitation, MM = Missing Value Source: NWS Daily Summary

Daily Weather History Graph

Daily Weather History Graph

Search for Another Location

Airport or City:

Trip Planner

Search our weather history database for the weather conditions in past years. The results will help you decide how hot, cold, wet, or windy it might be!

Date:

Astronomy

Jan. 22, 2014 Rise Set
Actual Time 7:13 AM EST 5:26 PM EST
Civil Twilight 6:46 AM EST 5:53 PM EST
Nautical Twilight 6:15 AM EST 6:24 PM EST
Astronomical Twilight 5:45 AM EST 6:54 PM EST
Moon 11:40 PM EST (1/22) 10:28 AM EST (1/22)
Length of Visible Light 11h 07m
Length of Day
10h 13m
Waning Gibbous, 65% of the Moon is Illuminated
Jan 22
Waning Gibbous
Jan 24
Last Quarter
Jan 30
New
Feb 6
First Quarter
Feb 14
Full

Hourly Weather History & Observations

Time (EST) Temp. Windchill Dew Point Humidity Pressure Visibility Wind Dir Wind Speed Gust Speed Precip Events Conditions
12:14 AM 30.2 °F 18.9 °F 24.8 °F 80% 29.75 in 4.0 mi NNW 16.1 mph 25.3 mph 0.00 in Snow Light Snow
12:34 AM 30.2 °F 20.8 °F 24.8 °F 80% 29.77 in 7.0 mi NNW 11.5 mph 21.9 mph 0.00 in Snow Light Snow
12:54 AM 30.0 °F 18.7 °F 25.0 °F 82% 29.78 in 10.0 mi NNW 16.1 mph 25.3 mph 0.00 in   Overcast
1:54 AM 28.0 °F 16.1 °F 23.0 °F 81% 29.78 in 3.0 mi North 16.1 mph 26.5 mph 0.00 in Snow Light Snow
2:21 AM 28.4 °F 17.5 °F 21.2 °F 74% 29.79 in 10.0 mi NNW 13.8 mph 28.8 mph 0.00 in   Scattered Clouds
2:28 AM 28.4 °F 16.2 °F 21.2 °F 74% 29.80 in 10.0 mi NNW 17.3 mph 25.3 mph 0.00 in   Mostly Cloudy
2:54 AM 28.0 °F 15.7 °F 21.9 °F 78% 29.81 in 10.0 mi NW 17.3 mph 25.3 mph 0.00 in   Overcast
3:54 AM 26.1 °F 13.6 °F 18.0 °F 71% 29.85 in 10.0 mi North 16.1 mph 26.5 mph N/A   Mostly Cloudy
4:08 AM 24.8 °F 13.4 °F 17.6 °F 74% 29.86 in 10.0 mi North 12.7 mph 32.2 mph N/A   Scattered Clouds
4:54 AM 25.0 °F 15.5 °F 17.1 °F 72% 29.88 in 10.0 mi NNW 9.2 mph 18.4 mph N/A   Partly Cloudy
5:54 AM 24.1 °F 11.5 °F 17.1 °F 75% 29.91 in 10.0 mi NNW 15.0 mph 24.2 mph N/A   Clear
6:54 AM 24.1 °F 15.2 °F 18.0 °F 77% 29.95 in 10.0 mi NW 8.1 mph - N/A   Clear
7:54 AM 24.1 °F 11.5 °F 16.0 °F 71% 29.97 in 10.0 mi NNW 15.0 mph 23.0 mph N/A   Clear
8:54 AM 25.0 °F 12.6 °F 16.0 °F 69% 29.99 in 10.0 mi NNW 15.0 mph 23.0 mph N/A   Overcast
9:54 AM 27.0 °F 16.1 °F 17.1 °F 66% 30.02 in 10.0 mi NW 12.7 mph - N/A   Scattered Clouds
10:54 AM 28.0 °F 17.0 °F 17.1 °F 63% 30.02 in 10.0 mi NNW 13.8 mph 19.6 mph N/A   Clear
11:54 AM 28.9 °F 19.2 °F 18.0 °F 64% 30.02 in 10.0 mi NW 11.5 mph 17.3 mph N/A   Scattered Clouds
12:38 PM 28.4 °F 18.5 °F 17.6 °F 64% 30.02 in 10.0 mi NNW 11.5 mph - N/A   Overcast
12:54 PM 28.9 °F 19.8 °F 18.0 °F 64% 30.01 in 10.0 mi NNW 10.4 mph - N/A   Overcast
1:54 PM 28.9 °F 19.8 °F 18.0 °F 64% 30.02 in 10.0 mi WNW 10.4 mph - N/A   Overcast
2:21 PM 28.4 °F 20.4 °F 17.6 °F 64% 30.02 in 10.0 mi WNW 8.1 mph - N/A   Overcast
2:44 PM 28.4 °F 18.0 °F 17.6 °F 64% 30.02 in 10.0 mi NW 12.7 mph - N/A   Overcast
2:54 PM 28.9 °F 22.8 °F 19.0 °F 67% 30.03 in 10.0 mi NW 5.8 mph - N/A   Overcast
3:15 PM 28.4 °F 19.7 °F 15.8 °F 59% 30.02 in 10.0 mi NNW 9.2 mph - N/A   Mostly Cloudy
3:54 PM 30.9 °F 21.7 °F 16.0 °F 54% 30.02 in 10.0 mi NNW 11.5 mph 19.6 mph N/A   Clear
4:54 PM 30.0 °F 22.4 °F 16.0 °F 56% 30.05 in 10.0 mi NW 8.1 mph - N/A   Clear
5:54 PM 28.0 °F 22.8 °F 16.0 °F 61% 30.06 in 10.0 mi NNW 4.6 mph - N/A   Clear
6:54 PM 27.0 °F - 15.1 °F 61% 30.09 in 10.0 mi Calm Calm - N/A   Clear
7:54 PM 25.0 °F - 16.0 °F 69% 30.12 in 10.0 mi Calm Calm - N/A   Clear
8:54 PM 21.9 °F - 16.0 °F 78% 30.12 in 10.0 mi Calm Calm - N/A   Clear
9:54 PM 21.0 °F 16.2 °F 17.1 °F 85% 30.13 in 10.0 mi SSW 3.5 mph - N/A   Clear
10:54 PM 21.0 °F - 17.1 °F 85% 30.14 in 10.0 mi Calm Calm - N/A   Clear
11:54 PM 19.0 °F - 16.0 °F 88% 30.16 in 10.0 mi Calm Calm - N/A   Clear